QPF
0.00 0.00 0.01 0.04 0.03 0.02 0.03 0.02 0.02 0.05 0.03 0.02 0.03 0.03 0.01 0.01 0.01 0.05 0.09 0.10 0.10 0.12 0.13 0.18 0.15 0.13 0.08 0.06 0.05 0.05 0.08 0.12 0.10 0.07 0.06 0.05 0.09 0.19 0.24 0.22 0.16 0.11 0.09 0.09 0.10 0.13 0.19 0.23 0.18
0.00 0.01 0.02 0.03 0.03 0.02 0.03 0.04 0.05 0.06 0.02 0.02 0.03 0.03 0.02 0.01 0.03 0.06 0.09 0.10 0.10 0.11 0.13 0.17 0.17 0.12 0.07 0.05 0.03 0.04 0.07 0.09 0.08 0.07 0.08 0.07 0.09 0.15 0.17 0.16 0.13 0.10 0.09 0.10 0.12 0.15 0.21 0.18 0.13
0.01 0.01 0.02 0.02 0.01 0.02 0.03 0.07 0.07 0.03 0.02 0.02 0.02 0.02 0.01 0.03 0.05 0.07 0.09 0.09 0.09 0.08 0.10 0.18 0.19 0.11 0.08 0.06 0.05 0.06 0.07 0.08 0.07 0.08 0.08 0.08 0.08 0.11 0.11 0.10 0.10 0.09 0.09 0.11 0.16 0.19 0.20 0.15 0.12
0.01 0.02 0.02 0.01 0.01 0.01 0.02 0.04 0.03 0.02 0.02 0.02 0.02 0.01 0.01 0.03 0.06 0.07 0.05 0.04 0.05 0.06 0.09 0.21 0.23 0.12 0.08 0.07 0.06 0.05 0.05 0.06 0.07 0.08 0.08 0.08 0.07 0.07 0.08 0.08 0.09 0.10 0.09 0.11 0.15 0.19 0.16 0.12 0.11
0.01 0.01 0.01 0.01 0.01 0.01 0.01 0.01 0.01 0.03 0.02 0.02 0.01 0.00 0.01 0.03 0.04 0.04 0.02 0.02 0.02 0.03 0.06 0.17 0.27 0.18 0.10 0.07 0.06 0.05 0.05 0.05 0.07 0.08 0.08 0.07 0.08 0.08 0.06 0.05 0.08 0.10 0.09 0.09 0.13 0.19 0.12 0.11 0.12
0.01 0.01 0.01 0.00 0.01 0.01 0.02 0.02 0.01 0.02 0.01 0.00 0.00 0.00 0.02 0.04 0.05 0.04 0.02 0.02 0.01 0.01 0.02 0.06 0.16 0.19 0.16 0.11 0.08 0.07 0.06 0.06 0.07 0.09 0.09 0.10 0.09 0.08 0.06 0.04 0.05 0.07 0.08 0.10 0.17 0.20 0.12 0.15 0.16
0.02 0.02 0.01 0.00 0.01 0.01 0.02 0.02 0.02 0.02 0.01 0.00 0.00 0.00 0.01 0.04 0.05 0.04 0.02 0.02 0.02 0.01 0.01 0.03 0.09 0.14 0.16 0.16 0.12 0.10 0.09 0.10 0.11 0.12 0.13 0.13 0.09 0.08 0.06 0.05 0.06 0.08 0.09 0.17 0.28 0.23 0.18 0.20 0.18
0.01 0.01 0.01 0.00 0.01 0.02 0.02 0.01 0.01 0.01 0.01 0.00 0.00 0.01 0.02 0.03 0.04 0.03 0.03 0.04 0.02 0.01 0.01 0.02 0.04 0.07 0.09 0.13 0.16 0.15 0.13 0.12 0.12 0.12 0.18 0.17 0.13 0.11 0.09 0.07 0.08 0.10 0.14 0.27 0.34 0.29 0.25 0.21 0.18
0.00 0.01 0.01 0.00 0.00 0.01 0.02 0.01 0.01 0.02 0.01 0.00 0.00 0.00 0.01 0.02 0.03 0.03 0.02 0.03 0.03 0.01 0.01 0.02 0.02 0.03 0.05 0.06 0.08 0.08 0.10 0.11 0.10 0.09 0.12 0.14 0.12 0.11 0.10 0.09 0.10 0.12 0.17 0.25 0.27 0.25 0.21 0.18 0.16
0.01 0.01 0.00 0.00 0.00 0.01 0.01 0.01 0.01 0.02 0.03 0.01 0.01 0.01 0.01 0.02 0.02 0.03 0.04 0.04 0.03 0.02 0.02 0.02 0.02 0.02 0.02 0.02 0.04 0.04 0.05 0.05 0.06 0.07 0.08 0.10 0.12 0.14 0.14 0.15 0.14 0.14 0.17 0.19 0.19 0.19 0.16 0.11 0.07
0.00 0.00 0.00 0.01 0.01 0.01 0.01 0.02 0.01 0.01 0.01 0.02 0.02 0.02 0.01 0.01 0.02 0.03 0.04 0.04 0.03 0.04 0.03 0.03 0.03 0.02 0.02 0.02 0.02 0.02 0.03 0.04 0.04 0.06 0.08 0.09 0.10 0.12 0.14 0.17 0.17 0.15 0.13 0.11 0.11 0.10 0.08 0.06 0.04
0.00 0.00 0.01 0.01 0.02 0.02 0.01 0.02 0.01 0.00 0.01 0.02 0.01 0.01 0.01 0.01 0.01 0.01 0.03 0.03 0.02 0.03 0.02 0.02 0.02 0.02 0.02 0.02 0.02 0.02 0.02 0.03 0.03 0.05 0.07 0.07 0.07 0.07 0.06 0.06 0.05 0.05 0.05 0.06 0.05 0.05 0.04 0.05 0.05
0.01 0.01 0.01 0.01 0.01 0.01 0.01 0.01 0.01 0.01 0.01 0.01 0.01 0.00 0.00 0.00 0.00 0.00 0.01 0.01 0.01 0.01 0.01 0.02 0.02 0.02 0.01 0.01 0.02 0.02 0.02 0.02 0.02 0.03 0.03 0.03 0.03 0.03 0.03 0.03 0.03 0.03 0.03 0.04 0.03 0.03 0.03 0.04 0.03
0.00 0.01 0.01 0.01 0.01 0.01 0.00 0.00 0.00 0.01 0.01 0.01 0.00 0.00 0.00 0.00 0.00 0.01 0.01 0.01 0.01 0.01 0.01 0.01 0.02 0.02 0.01 0.01 0.02 0.03 0.04 0.04 0.05 0.05 0.04 0.04 0.04 0.04 0.04 0.04 0.04 0.04 0.04 0.03 0.02 0.02 0.03 0.03 0.03
0.00 0.01 0.01 0.01 0.01 0.01 0.01 0.01 0.01 0.01 0.01 0.01 0.00 0.00 0.00 0.00 0.00 0.00 0.01 0.01 0.01 0.01 0.02 0.01 0.02 0.01 0.01 0.01 0.01 0.02 0.03 0.06 0.08 0.09 0.10 0.09 0.07 0.05 0.05 0.05 0.05 0.04 0.04 0.03 0.02 0.02 0.03 0.03 0.03
0.00 0.01 0.01 0.01 0.01 0.01 0.01 0.02 0.02 0.01 0.01 0.01 0.01 0.00 0.00 0.00 0.01 0.00 0.00 0.01 0.01 0.01 0.01 0.01 0.01 0.01 0.02 0.01 0.02 0.01 0.01 0.02 0.03 0.03 0.03 0.03 0.03 0.03 0.03 0.02 0.03 0.03 0.04 0.03 0.02 0.03 0.03 0.03 0.03
0.00 0.00 0.01 0.01 0.01 0.01 0.01 0.01 0.02 0.02 0.01 0.01 0.01 0.01 0.01 0.00 0.00 0.00 0.00 0.00 0.00 0.01 0.01 0.01 0.01 0.01 0.01 0.01 0.02 0.01 0.01 0.01 0.01 0.01 0.01 0.02 0.02 0.04 0.03 0.02 0.02 0.02 0.03 0.02 0.02 0.02 0.01 0.01 0.02
0.01 0.00 0.00 0.00 0.00 0.00 0.01 0.01 0.01 0.02 0.02 0.01 0.01 0.01 0.01 0.00 0.00 0.00 0.00 0.01 0.01 0.02 0.02 0.02 0.01 0.01 0.01 0.01 0.02 0.02 0.01 0.01 0.01 0.01 0.01 0.01 0.01 0.02 0.03 0.02 0.02 0.02 0.02 0.03 0.02 0.01 0.01 0.01 0.01
0.00 0.00 0.00 0.00 0.00 0.00 0.01 0.01 0.01 0.02 0.03 0.03 0.03 0.02 0.01 0.01 0.00 0.00 0.01 0.01 0.01 0.01 0.03 0.03 0.02 0.01 0.01 0.01 0.01 0.01 0.01 0.02 0.02 0.01 0.01 0.02 0.02 0.03 0.03 0.03 0.03 0.02 0.02 0.03 0.02 0.01 0.01 0.01 0.02
0.00 0.00 0.00 0.00 0.01 0.01 0.01 0.01 0.02 0.02 0.02 0.02 0.01 0.01 0.01 0.01 0.01 0.01 0.01 0.01 0.00 0.00 0.01 0.03 0.02 0.01 0.02 0.02 0.01 0.01 0.01 0.02 0.02 0.02 0.02 0.03 0.03 0.03 0.03 0.03 0.02 0.01 0.02 0.02 0.01 0.01 0.01 0.01 0.02
0.00 0.00 0.00 0.00 0.01 0.01 0.01 0.01 0.01 0.01 0.01 0.01 0.00 0.01 0.01 0.01 0.01 0.02 0.01 0.01 0.01 0.01 0.01 0.01 0.01 0.01 0.01 0.01 0.00 0.01 0.01 0.01 0.02 0.02 0.01 0.02 0.02 0.02 0.03 0.02 0.02 0.02 0.02 0.01 0.01 0.01 0.01 0.02 0.04
0.00 0.00 0.00 0.01 0.01 0.01 0.01 0.01 0.01 0.01 0.01 0.00 0.00 0.00 0.01 0.02 0.01 0.02 0.02 0.02 0.02 0.02 0.01 0.01 0.01 0.01 0.01 0.01 0.01 0.01 0.01 0.02 0.02 0.02 0.01 0.01 0.02 0.02 0.02 0.02 0.02 0.02 0.01 0.01 0.02 0.01 0.02 0.03 0.03
0.00 0.00 0.00 0.01 0.00 0.00 0.00 0.01 0.00 0.01 0.02 0.01 0.01 0.01 0.02 0.02 0.01 0.02 0.03 0.02 0.03 0.02 0.02 0.01 0.01 0.01 0.01 0.01 0.01 0.01 0.01 0.01 0.02 0.02 0.01 0.01 0.02 0.02 0.03 0.03 0.03 0.02 0.02 0.02 0.02 0.02 0.02 0.02 0.04
0.00 0.00 0.00 0.01 0.00 0.00 0.00 0.01 0.01 0.01 0.03 0.01 0.01 0.01 0.01 0.01 0.01 0.02 0.04 0.04 0.03 0.02 0.02 0.01 0.02 0.01 0.01 0.00 0.01 0.01 0.01 0.01 0.02 0.02 0.01 0.01 0.02 0.03 0.04 0.03 0.03 0.02 0.02 0.03 0.02 0.03 0.04 0.03 0.03
0.00 0.00 0.01 0.00 0.00 0.00 0.00 0.00 0.01 0.02 0.03 0.05 0.04 0.03 0.02 0.02 0.01 0.02 0.04 0.05 0.04 0.04 0.02 0.02 0.02 0.02 0.01 0.01 0.00 0.01 0.01 0.02 0.02 0.03 0.02 0.01 0.01 0.02 0.04 0.03 0.02 0.02 0.03 0.03 0.03 0.02 0.03 0.03 0.03
0.00 0.00 0.00 0.01 0.00 0.00 0.00 0.00 0.01 0.03 0.03 0.07 0.08 0.06 0.03 0.02 0.01 0.02 0.03 0.04 0.05 0.05 0.03 0.02 0.02 0.02 0.01 0.01 0.01 0.01 0.01 0.02 0.03 0.04 0.02 0.01 0.02 0.03 0.03 0.02 0.02 0.03 0.03 0.03 0.03 0.03 0.03 0.03 0.03
0.00 0.01 0.01 0.01 0.00 0.00 0.00 0.00 0.00 0.01 0.01 0.02 0.04 0.03 0.02 0.02 0.02 0.03 0.03 0.04 0.05 0.05 0.05 0.04 0.03 0.02 0.01 0.01 0.01 0.01 0.02 0.02 0.04 0.04 0.02 0.02 0.03 0.04 0.04 0.03 0.04 0.04 0.03 0.03 0.04 0.04 0.03 0.03 0.04
0.00 0.00 0.00 0.00 0.00 0.00 0.00 0.00 0.00 0.01 0.01 0.00 0.01 0.01 0.01 0.03 0.03 0.03 0.03 0.03 0.03 0.04 0.05 0.04 0.04 0.04 0.02 0.02 0.02 0.02 0.03 0.03 0.03 0.03 0.02 0.03 0.04 0.05 0.05 0.04 0.03 0.03 0.03 0.03 0.03 0.03 0.03 0.06 0.07
0.00 0.00 0.00 0.01 0.00 0.00 0.00 0.00 0.00 0.00 0.00 0.00 0.00 0.00 0.02 0.04 0.04 0.02 0.01 0.01 0.02 0.02 0.03 0.03 0.03 0.03 0.02 0.02 0.02 0.02 0.02 0.02 0.02 0.02 0.02 0.02 0.03 0.03 0.02 0.03 0.03 0.02 0.02 0.03 0.03 0.03 0.03 0.04 0.05
0.00 0.00 0.00 0.00 0.00 0.00 0.00 0.00 0.00 0.00 0.00 0.00 0.01 0.02 0.05 0.06 0.05 0.03 0.02 0.01 0.01 0.01 0.01 0.01 0.01 0.02 0.02 0.02 0.02 0.02 0.02 0.02 0.02 0.01 0.01 0.01 0.02 0.02 0.01 0.01 0.01 0.02 0.03 0.04 0.03 0.01 0.01 0.01 0.01
MSLP
1005.62 1006.62 1008.01 1009.65 1011.34 1012.88 1014.12 1014.98 1015.46 1015.61 1015.59 1015.51 1015.49 1015.55 1015.69 1015.83 1015.87 1015.72 1015.35 1014.75 1014.03 1013.26 1012.58 1012.06 1011.74 1011.61 1011.59 1011.57 1011.48 1011.25 1010.88 1010.39 1009.85 1009.35 1008.94 1008.67 1008.52 1008.47 1008.48 1008.49 1008.47 1008.42 1008.36 1008.34 1008.39 1008.55 1008.82 1009.21 1009.68
1006.71 1007.97 1009.55 1011.25 1012.89 1014.27 1015.26 1015.81 1015.94 1015.75 1015.42 1015.09 1014.87 1014.81 1014.90 1015.06 1015.18 1015.15 1014.92 1014.49 1013.91 1013.26 1012.66 1012.18 1011.88 1011.74 1011.70 1011.70 1011.65 1011.50 1011.24 1010.89 1010.50 1010.13 1009.83 1009.62 1009.50 1009.44 1009.40 1009.35 1009.28 1009.19 1009.12 1009.09 1009.15 1009.32 1009.60 1009.98 1010.41
1007.95 1009.41 1011.07 1012.76 1014.27 1015.44 1016.16 1016.40 1016.23 1015.76 1015.19 1014.67 1014.31 1014.17 1014.22 1014.39 1014.57 1014.64 1014.54 1014.25 1013.80 1013.28 1012.77 1012.35 1012.06 1011.91 1011.85 1011.84 1011.80 1011.70 1011.52 1011.28 1011.03 1010.79 1010.60 1010.47 1010.39 1010.34 1010.28 1010.21 1010.11 1010.01 1009.93 1009.92 1010.00 1010.18 1010.45 1010.79 1011.16
1009.21 1010.77 1012.44 1014.03 1015.36 1016.29 1016.75 1016.73 1016.33 1015.69 1014.98 1014.36 1013.93 1013.75 1013.79 1013.96 1014.17 1014.29 1014.27 1014.09 1013.76 1013.35 1012.93 1012.56 1012.30 1012.14 1012.05 1012.00 1011.94 1011.84 1011.71 1011.55 1011.39 1011.25 1011.15 1011.10 1011.07 1011.04 1011.00 1010.93 1010.84 1010.75 1010.70 1010.72 1010.82 1011.01 1011.26 1011.55 1011.84
1010.38 1011.95 1013.54 1014.96 1016.07 1016.76 1017.00 1016.81 1016.28 1015.57 1014.84 1014.23 1013.82 1013.65 1013.69 1013.85 1014.05 1014.18 1014.19 1014.06 1013.81 1013.48 1013.14 1012.83 1012.59 1012.42 1012.29 1012.19 1012.08 1011.96 1011.83 1011.69 1011.58 1011.50 1011.47 1011.47 1011.49 1011.50 1011.49 1011.44 1011.39 1011.34 1011.33 1011.38 1011.50 1011.68 1011.91 1012.14 1012.35
1011.39 1012.88 1014.30 1015.51 1016.38 1016.86 1016.94 1016.65 1016.12 1015.46 1014.82 1014.31 1013.99 1013.87 1013.92 1014.06 1014.21 1014.30 1014.29 1014.16 1013.94 1013.67 1013.38 1013.12 1012.91 1012.73 1012.57 1012.41 1012.24 1012.07 1011.89 1011.74 1011.64 1011.59 1011.59 1011.63 1011.68 1011.73 1011.74 1011.73 1011.71 1011.71 1011.73 1011.81 1011.95 1012.12 1012.31 1012.49 1012.63
1012.19 1013.54 1014.75 1015.72 1016.37 1016.67 1016.64 1016.35 1015.88 1015.37 1014.90 1014.56 1014.37 1014.34 1014.40 1014.51 1014.59 1014.60 1014.52 1014.35 1014.13 1013.88 1013.63 1013.41 1013.22 1013.04 1012.86 1012.65 1012.43 1012.19 1011.97 1011.78 1011.66 1011.60 1011.61 1011.67 1011.74 1011.80 1011.84 1011.86 1011.87 1011.89 1011.94 1012.03 1012.17 1012.32 1012.48 1012.61 1012.70
1012.80 1013.97 1014.96 1015.70 1016.15 1016.31 1016.23 1015.97 1015.64 1015.31 1015.05 1014.91 1014.88 1014.93 1015.01 1015.07 1015.07 1014.98 1014.80 1014.57 1014.31 1014.07 1013.85 1013.66 1013.49 1013.33 1013.13 1012.90 1012.63 1012.35 1012.09 1011.87 1011.72 1011.65 1011.66 1011.71 1011.79 1011.86 1011.91 1011.93 1011.95 1011.97 1012.02 1012.11 1012.22 1012.35 1012.47 1012.57 1012.63
1013.24 1014.25 1015.04 1015.57 1015.86 1015.91 1015.81 1015.63 1015.43 1015.29 1015.23 1015.28 1015.38 1015.51 1015.60 1015.61 1015.52 1015.32 1015.06 1014.75 1014.46 1014.20 1014.00 1013.84 1013.71 1013.56 1013.38 1013.14 1012.86 1012.56 1012.27 1012.04 1011.88 1011.81 1011.81 1011.86 1011.94 1012.00 1012.03 1012.05 1012.04 1012.05 1012.07 1012.13 1012.21 1012.31 1012.40 1012.47 1012.51
1013.60 1014.47 1015.09 1015.47 1015.62 1015.61 1015.50 1015.38 1015.30 1015.31 1015.41 1015.59 1015.80 1015.97 1016.05 1016.02 1015.85 1015.57 1015.22 1014.87 1014.54 1014.28 1014.09 1013.96 1013.86 1013.74 1013.58 1013.36 1013.09 1012.80 1012.52 1012.30 1012.15 1012.09 1012.10 1012.15 1012.21 1012.26 1012.28 1012.26 1012.22 1012.19 1012.17 1012.19 1012.23 1012.29 1012.36 1012.41 1012.45
1013.93 1014.70 1015.22 1015.48 1015.55 1015.49 1015.37 1015.28 1015.28 1015.38 1015.57 1015.82 1016.07 1016.26 1016.32 1016.24 1016.02 1015.68 1015.29 1014.90 1014.56 1014.30 1014.13 1014.03 1013.95 1013.87 1013.73 1013.55 1013.31 1013.05 1012.80 1012.61 1012.49 1012.45 1012.47 1012.53 1012.59 1012.62 1012.61 1012.56 1012.49 1012.41 1012.35 1012.32 1012.33 1012.37 1012.41 1012.46 1012.50
1014.29 1015.02 1015.47 1015.67 1015.69 1015.59 1015.46 1015.38 1015.38 1015.50 1015.71 1015.97 1016.20 1016.36 1016.40 1016.28 1016.03 1015.67 1015.27 1014.87 1014.55 1014.30 1014.15 1014.07 1014.02 1013.95 1013.85 1013.70 1013.49 1013.27 1013.07 1012.91 1012.83 1012.81 1012.85 1012.91 1012.97 1012.99 1012.96 1012.89 1012.78 1012.67 1012.58 1012.52 1012.51 1012.53 1012.57 1012.62 1012.67
1014.74 1015.45 1015.87 1016.04 1016.03 1015.90 1015.75 1015.64 1015.62 1015.69 1015.85 1016.05 1016.23 1016.34 1016.34 1016.20 1015.94 1015.59 1015.21 1014.85 1014.54 1014.32 1014.19 1014.12 1014.08 1014.03 1013.95 1013.81 1013.64 1013.46 1013.28 1013.16 1013.09 1013.09 1013.13 1013.20 1013.25 1013.26 1013.22 1013.14 1013.02 1012.89 1012.79 1012.73 1012.71 1012.73 1012.78 1012.84 1012.90
1015.28 1015.97 1016.38 1016.54 1016.52 1016.38 1016.20 1016.05 1015.96 1015.95 1016.02 1016.12 1016.22 1016.26 1016.22 1016.07 1015.83 1015.52 1015.18 1014.86 1014.59 1014.40 1014.27 1014.21 1014.16 1014.11 1014.03 1013.91 1013.76 1013.59 1013.43 1013.31 1013.24 1013.23 1013.25 1013.30 1013.33 1013.33 1013.29 1013.21 1013.10 1012.99 1012.90 1012.85 1012.85 1012.89 1012.96 1013.04 1013.11
1015.89 1016.55 1016.94 1017.10 1017.08 1016.95 1016.75 1016.54 1016.38 1016.27 1016.22 1016.21 1016.22 1016.19 1016.12 1015.98 1015.76 1015.50 1015.22 1014.95 1014.71 1014.53 1014.41 1014.33 1014.27 1014.21 1014.13 1014.01 1013.86 1013.69 1013.52 1013.38 1013.28 1013.22 1013.20 1013.20 1013.20 1013.18 1013.14 1013.07 1012.99 1012.91 1012.86 1012.85 1012.88 1012.95 1013.04 1013.14 1013.21
1016.48 1017.09 1017.47 1017.64 1017.64 1017.51 1017.31 1017.07 1016.83 1016.63 1016.47 1016.35 1016.26 1016.17 1016.07 1015.94 1015.77 1015.55 1015.32 1015.09 1014.88 1014.70 1014.57 1014.47 1014.40 1014.33 1014.23 1014.11 1013.96 1013.78 1013.59 1013.40 1013.24 1013.11 1013.02 1012.95 1012.90 1012.85 1012.80 1012.75 1012.70 1012.67 1012.67 1012.70 1012.76 1012.86 1012.98 1013.08 1013.15
1017.01 1017.55 1017.90 1018.09 1018.12 1018.03 1017.83 1017.58 1017.28 1016.99 1016.73 1016.52 1016.34 1016.21 1016.09 1015.97 1015.83 1015.66 1015.47 1015.27 1015.07 1014.88 1014.73 1014.61 1014.52 1014.43 1014.35 1014.23 1014.08 1013.90 1013.68 1013.44 1013.21 1012.99 1012.80 1012.64 1012.52 1012.44 1012.38 1012.34 1012.32 1012.33 1012.37 1012.44 1012.53 1012.65 1012.77 1012.87 1012.94
1017.38 1017.86 1018.21 1018.43 1018.52 1018.48 1018.32 1018.06 1017.72 1017.36 1017.01 1016.70 1016.45 1016.27 1016.13 1016.02 1015.91 1015.78 1015.62 1015.42 1015.22 1015.02 1014.84 1014.70 1014.59 1014.52 1014.45 1014.36 1014.23 1014.06 1013.82 1013.54 1013.24 1012.93 1012.64 1012.39 1012.20 1012.06 1011.98 1011.94 1011.95 1011.99 1012.06 1012.14 1012.24 1012.35 1012.45 1012.54 1012.59
1017.58 1018.02 1018.40 1018.69 1018.86 1018.90 1018.78 1018.52 1018.15 1017.72 1017.28 1016.87 1016.55 1016.31 1016.15 1016.04 1015.95 1015.85 1015.70 1015.51 1015.30 1015.07 1014.87 1014.71 1014.61 1014.55 1014.52 1014.48 1014.40 1014.26 1014.04 1013.74 1013.38 1012.99 1012.62 1012.28 1012.01 1011.82 1011.71 1011.67 1011.68 1011.73 1011.80 1011.88 1011.96 1012.04 1012.10 1012.14 1012.16
1017.59 1018.05 1018.51 1018.91 1019.20 1019.33 1019.27 1019.01 1018.60 1018.07 1017.53 1017.02 1016.60 1016.30 1016.11 1015.99 1015.92 1015.83 1015.69 1015.51 1015.28 1015.03 1014.81 1014.64 1014.55 1014.52 1014.55 1014.58 1014.57 1014.49 1014.30 1014.01 1013.63 1013.20 1012.76 1012.35 1012.02 1011.78 1011.63 1011.57 1011.57 1011.61 1011.66 1011.71 1011.74 1011.76 1011.76 1011.75 1011.71
1017.45 1018.02 1018.62 1019.18 1019.61 1019.85 1019.83 1019.57 1019.08 1018.45 1017.77 1017.13 1016.60 1016.21 1015.98 1015.85 1015.78 1015.71 1015.59 1015.41 1015.17 1014.91 1014.68 1014.51 1014.43 1014.44 1014.52 1014.63 1014.71 1014.71 1014.58 1014.33 1013.96 1013.51 1013.04 1012.59 1012.21 1011.92 1011.74 1011.65 1011.62 1011.63 1011.64 1011.63 1011.60 1011.54 1011.47 1011.38 1011.29
1017.26 1017.99 1018.79 1019.55 1020.15 1020.49 1020.51 1020.21 1019.63 1018.85 1018.01 1017.21 1016.54 1016.06 1015.77 1015.62 1015.56 1015.51 1015.42 1015.25 1015.02 1014.76 1014.52 1014.34 1014.28 1014.32 1014.46 1014.64 1014.81 1014.89 1014.84 1014.65 1014.31 1013.88 1013.40 1012.93 1012.52 1012.20 1011.99 1011.87 1011.80 1011.76 1011.71 1011.64 1011.53 1011.39 1011.23 1011.07 1010.91
1017.08 1018.05 1019.09 1020.06 1020.83 1021.26 1021.30 1020.94 1020.23 1019.28 1018.25 1017.28 1016.46 1015.88 1015.52 1015.35 1015.31 1015.29 1015.23 1015.10 1014.88 1014.63 1014.39 1014.21 1014.15 1014.21 1014.39 1014.62 1014.85 1015.01 1015.04 1014.91 1014.63 1014.23 1013.77 1013.30 1012.88 1012.54 1012.30 1012.14 1012.03 1011.94 1011.83 1011.69 1011.50 1011.27 1011.03 1010.80 1010.59
1017.00 1018.22 1019.50 1020.68 1021.60 1022.11 1022.14 1021.69 1020.84 1019.71 1018.49 1017.34 1016.38 1015.69 1015.28 1015.10 1015.07 1015.10 1015.09 1015.00 1014.82 1014.58 1014.34 1014.16 1014.09 1014.15 1014.34 1014.60 1014.87 1015.08 1015.17 1015.10 1014.87 1014.52 1014.09 1013.63 1013.22 1012.87 1012.60 1012.41 1012.26 1012.12 1011.95 1011.74 1011.47 1011.17 1010.86 1010.57 1010.30
1017.04 1018.48 1019.98 1021.34 1022.36 1022.91 1022.91 1022.37 1021.38 1020.08 1018.69 1017.38 1016.30 1015.53 1015.08 1014.91 1014.91 1014.99 1015.04 1015.01 1014.87 1014.66 1014.42 1014.23 1014.14 1014.19 1014.36 1014.61 1014.89 1015.13 1015.25 1015.23 1015.05 1014.74 1014.34 1013.91 1013.50 1013.15 1012.87 1012.64 1012.46 1012.27 1012.04 1011.77 1011.45 1011.09 1010.73 1010.38 1010.07
1017.17 1018.79 1020.44 1021.90 1022.98 1023.53 1023.48 1022.85 1021.74 1020.32 1018.80 1017.39 1016.23 1015.42 1014.96 1014.80 1014.86 1015.00 1015.12 1015.15 1015.06 1014.88 1014.65 1014.44 1014.33 1014.34 1014.47 1014.70 1014.96 1015.19 1015.32 1015.32 1015.17 1014.90 1014.53 1014.13 1013.73 1013.38 1013.08 1012.84 1012.62 1012.39 1012.13 1011.81 1011.45 1011.05 1010.63 1010.24 1009.90
1017.36 1019.06 1020.76 1022.25 1023.32 1023.83 1023.72 1023.02 1021.83 1020.34 1018.77 1017.32 1016.15 1015.34 1014.91 1014.80 1014.91 1015.12 1015.31 1015.40 1015.36 1015.21 1015.00 1014.79 1014.65 1014.62 1014.71 1014.88 1015.10 1015.30 1015.42 1015.42 1015.28 1015.03 1014.69 1014.31 1013.93 1013.58 1013.28 1013.02 1012.78 1012.52 1012.23 1011.88 1011.48 1011.05 1010.61 1010.19 1009.82
1017.52 1019.20 1020.86 1022.27 1023.27 1023.70 1023.53 1022.78 1021.57 1020.09 1018.55 1017.15 1016.03 1015.29 1014.92 1014.88 1015.06 1015.33 1015.58 1015.73 1015.74 1015.63 1015.44 1015.24 1015.08 1015.01 1015.04 1015.16 1015.32 1015.47 1015.56 1015.54 1015.40 1015.16 1014.84 1014.48 1014.12 1013.78 1013.48 1013.21 1012.96 1012.68 1012.37 1012.00 1011.59 1011.14 1010.68 1010.23 1009.83
1017.60 1019.15 1020.65 1021.91 1022.76 1023.09 1022.85 1022.10 1020.93 1019.54 1018.11 1016.84 1015.85 1015.23 1014.96 1015.00 1015.25 1015.58 1015.88 1016.08 1016.15 1016.08 1015.92 1015.73 1015.57 1015.48 1015.47 1015.53 1015.63 1015.72 1015.76 1015.71 1015.55 1015.31 1015.00 1014.66 1014.31 1013.99 1013.70 1013.44 1013.18 1012.89 1012.57 1012.19 1011.77 1011.31 1010.83 1010.37 1009.94
1017.59 1018.91 1020.17 1021.20 1021.86 1022.06 1021.76 1021.03 1019.96 1018.72 1017.48 1016.40 1015.60 1015.13 1014.99 1015.12 1015.44 1015.82 1016.16 1016.41 1016.51 1016.49 1016.38 1016.22 1016.07 1015.97 1015.93 1015.94 1015.98 1016.01 1015.99 1015.89 1015.71 1015.46 1015.15 1014.83 1014.51 1014.20 1013.93 1013.68 1013.42 1013.14 1012.81 1012.43 1011.99 1011.52 1011.03 1010.55 1010.09
Thickness
5810 5807 5803 5791 5771 5750 5744 5756 5766 5765 5766 5774 5777 5773 5765 5759 5754 5751 5772 5781 5782 5783 5784 5785 5786 5787 5787 5787 5787 5787 5786 5787 5788 5788 5788 5788 5787 5785 5784 5782 5781 5780 5779 5777 5776 5775 5774 5774 5772
5811 5807 5797 5781 5754 5734 5743 5761 5764 5768 5773 5779 5778 5774 5767 5764 5769 5770 5775 5781 5783 5783 5783 5785 5786 5786 5786 5786 5786 5786 5785 5785 5786 5786 5786 5786 5785 5783 5782 5780 5779 5778 5777 5776 5774 5774 5772 5771 5770
5813 5808 5787 5769 5751 5741 5750 5765 5768 5776 5781 5780 5774 5774 5769 5765 5771 5773 5779 5783 5783 5782 5783 5784 5785 5785 5785 5785 5784 5784 5784 5784 5784 5784 5784 5783 5783 5782 5780 5779 5778 5777 5775 5774 5773 5772 5770 5769 5768
5810 5797 5783 5763 5753 5761 5766 5771 5776 5776 5780 5781 5775 5768 5771 5777 5777 5779 5783 5783 5782 5781 5782 5782 5784 5784 5783 5783 5783 5782 5783 5782 5782 5782 5782 5781 5781 5780 5778 5777 5776 5775 5774 5772 5771 5770 5768 5767 5765
5808 5788 5767 5753 5758 5770 5777 5781 5781 5775 5775 5777 5775 5765 5766 5778 5783 5783 5783 5782 5780 5780 5781 5781 5782 5782 5781 5781 5781 5781 5781 5781 5781 5780 5780 5779 5779 5778 5777 5776 5775 5773 5772 5771 5770 5768 5767 5765 5763
5795 5781 5756 5748 5762 5774 5780 5785 5782 5776 5775 5776 5773 5765 5765 5777 5780 5781 5782 5781 5780 5779 5779 5780 5780 5780 5779 5779 5779 5779 5779 5779 5779 5778 5778 5778 5777 5776 5775 5774 5773 5772 5771 5770 5768 5767 5765 5764 5762
5790 5774 5760 5760 5763 5770 5780 5788 5781 5776 5774 5776 5777 5765 5766 5774 5779 5781 5781 5780 5779 5778 5778 5778 5778 5778 5777 5777 5777 5777 5777 5777 5777 5776 5776 5776 5775 5775 5773 5772 5772 5771 5769 5768 5766 5765 5764 5763 5761
5801 5780 5765 5763 5765 5771 5786 5789 5787 5782 5778 5786 5783 5766 5764 5774 5780 5780 5778 5777 5777 5776 5776 5776 5775 5775 5775 5775 5775 5774 5774 5774 5774 5774 5773 5773 5773 5772 5771 5770 5770 5769 5768 5766 5764 5763 5762 5761 5760
5807 5774 5761 5769 5771 5777 5789 5786 5787 5792 5785 5784 5785 5779 5779 5781 5779 5776 5773 5773 5773 5774 5774 5774 5774 5773 5773 5772 5772 5772 5772 5771 5771 5771 5771 5770 5770 5769 5768 5768 5768 5767 5766 5765 5763 5762 5761 5759 5758
5796 5770 5776 5789 5790 5788 5790 5787 5787 5784 5778 5777 5778 5781 5782 5779 5776 5771 5769 5768 5769 5770 5772 5773 5772 5771 5771 5771 5770 5770 5769 5768 5768 5768 5768 5767 5767 5767 5766 5766 5765 5765 5764 5763 5762 5760 5759 5758 5757
5799 5786 5794 5799 5801 5798 5790 5788 5791 5781 5772 5776 5776 5777 5778 5776 5773 5770 5768 5769 5769 5770 5771 5772 5771 5771 5770 5769 5769 5768 5768 5767 5766 5766 5765 5765 5765 5764 5763 5763 5763 5762 5762 5761 5760 5759 5758 5757 5756
5801 5801 5805 5804 5805 5800 5793 5792 5788 5785 5785 5791 5788 5784 5780 5775 5772 5771 5769 5769 5770 5770 5770 5772 5772 5771 5770 5769 5768 5767 5766 5765 5764 5764 5764 5763 5762 5761 5761 5761 5761 5760 5760 5759 5759 5757 5756 5755 5755
5802 5802 5808 5809 5806 5802 5798 5791 5789 5787 5793 5794 5789 5784 5779 5775 5773 5773 5773 5772 5771 5770 5770 5771 5771 5770 5769 5768 5767 5766 5765 5764 5763 5763 5763 5762 5761 5760 5760 5760 5759 5759 5759 5758 5757 5756 5756 5755 5755
5806 5804 5804 5806 5805 5804 5795 5791 5789 5786 5793 5790 5785 5780 5779 5777 5775 5773 5772 5771 5771 5771 5770 5771 5770 5770 5769 5767 5766 5765 5765 5764 5763 5762 5761 5761 5761 5760 5759 5759 5758 5757 5757 5757 5756 5755 5754 5754 5753
5811 5800 5798 5801 5803 5801 5796 5782 5785 5791 5792 5786 5783 5781 5779 5778 5777 5775 5774 5773 5773 5772 5772 5771 5770 5769 5768 5767 5766 5765 5764 5763 5762 5762 5761 5760 5760 5759 5758 5757 5757 5756 5756 5756 5755 5755 5754 5753 5752
5802 5788 5778 5794 5800 5800 5790 5771 5787 5793 5789 5782 5782 5781 5780 5779 5779 5779 5778 5776 5775 5773 5772 5771 5772 5769 5767 5767 5765 5764 5764 5763 5762 5761 5761 5760 5759 5759 5758 5757 5756 5755 5755 5755 5754 5753 5751 5750 5749
5782 5771 5773 5785 5798 5797 5787 5776 5788 5793 5789 5782 5781 5781 5780 5779 5779 5780 5780 5778 5776 5774 5772 5770 5770 5768 5767 5766 5765 5764 5763 5762 5762 5761 5760 5759 5759 5758 5758 5757 5756 5755 5754 5753 5753 5751 5750 5748 5748
5771 5772 5774 5777 5793 5792 5783 5780 5788 5792 5789 5784 5783 5782 5781 5780 5780 5782 5781 5780 5778 5775 5773 5771 5769 5768 5767 5765 5764 5763 5762 5762 5761 5761 5760 5759 5758 5758 5757 5756 5755 5754 5753 5751 5751 5749 5749 5747 5746
5787 5780 5775 5782 5796 5789 5781 5781 5786 5790 5788 5785 5784 5783 5782 5783 5785 5784 5782 5781 5778 5776 5773 5771 5769 5768 5766 5764 5762 5760 5759 5760 5760 5760 5760 5759 5758 5758 5756 5755 5754 5753 5751 5750 5750 5748 5746 5745 5745
5788 5779 5776 5784 5795 5789 5780 5781 5788 5791 5791 5792 5789 5786 5785 5784 5783 5784 5782 5780 5778 5776 5774 5772 5769 5768 5767 5766 5764 5762 5761 5760 5760 5760 5760 5759 5758 5757 5756 5754 5753 5752 5750 5748 5747 5746 5744 5743 5742
5785 5780 5780 5779 5786 5787 5781 5774 5782 5790 5795 5795 5794 5792 5791 5788 5785 5784 5783 5781 5779 5776 5775 5775 5771 5770 5768 5767 5764 5763 5761 5760 5758 5758 5758 5758 5758 5757 5755 5754 5752 5751 5749 5747 5746 5745 5743 5740 5740
5779 5795 5792 5784 5770 5760 5770 5750 5773 5783 5787 5791 5793 5793 5792 5793 5791 5787 5785 5782 5781 5780 5779 5776 5773 5771 5769 5767 5765 5761 5758 5756 5756 5756 5757 5757 5757 5756 5755 5754 5752 5750 5748 5746 5745 5744 5742 5740 5737
5792 5799 5791 5781 5767 5757 5762 5752 5763 5779 5780 5788 5795 5797 5797 5797 5795 5791 5790 5788 5786 5784 5781 5777 5774 5772 5770 5768 5766 5763 5760 5758 5757 5757 5756 5755 5756 5755 5754 5753 5752 5750 5748 5746 5745 5743 5741 5739 5736
5800 5788 5777 5764 5755 5741 5754 5749 5755 5771 5783 5792 5798 5801 5801 5801 5798 5795 5794 5791 5788 5785 5782 5779 5775 5772 5771 5769 5767 5764 5761 5759 5756 5755 5754 5754 5754 5754 5754 5752 5751 5749 5747 5745 5744 5742 5740 5738 5736
5789 5764 5741 5738 5728 5733 5753 5750 5758 5788 5797 5800 5802 5803 5804 5803 5800 5796 5793 5791 5788 5786 5783 5780 5777 5773 5772 5770 5768 5766 5763 5761 5758 5756 5754 5753 5752 5752 5752 5751 5750 5748 5747 5745 5743 5741 5739 5737 5734
5778 5767 5741 5730 5725 5733 5749 5746 5770 5796 5803 5807 5807 5806 5805 5803 5801 5798 5796 5793 5790 5787 5785 5782 5778 5775 5773 5771 5769 5767 5765 5762 5760 5758 5756 5754 5753 5752 5751 5750 5749 5747 5746 5744 5742 5739 5737 5735 5733
5774 5763 5766 5742 5735 5730 5738 5752 5775 5796 5799 5801 5802 5802 5801 5801 5800 5798 5796 5794 5792 5789 5787 5785 5781 5777 5775 5773 5770 5767 5765 5763 5761 5759 5757 5755 5753 5752 5750 5748 5747 5745 5743 5742 5740 5737 5734 5732 5730
5784 5768 5749 5736 5722 5720 5734 5743 5754 5779 5788 5793 5795 5797 5799 5800 5799 5798 5797 5795 5793 5792 5789 5786 5782 5779 5776 5773 5771 5768 5765 5763 5761 5758 5756 5754 5753 5751 5749 5747 5745 5743 5741 5740 5737 5734 5732 5730 5728
5770 5762 5747 5734 5733 5720 5720 5739 5779 5781 5788 5790 5793 5796 5797 5798 5798 5798 5797 5795 5793 5791 5788 5784 5781 5778 5776 5773 5771 5768 5765 5763 5760 5758 5756 5754 5752 5750 5747 5745 5743 5741 5739 5737 5734 5731 5729 5727 5724
5778 5766 5751 5741 5732 5725 5723 5742 5789 5789 5791 5791 5793 5796 5797 5797 5797 5797 5795 5793 5791 5788 5786 5783 5780 5778 5776 5773 5770 5767 5764 5762 5759 5757 5755 5753 5750 5748 5746 5743 5740 5738 5736 5734 5731 5729 5726 5723 5720